Regional Weather Roundup
Issued by NWS

Home | Current Version | Previous Version | Text Only | Print | Product List | Glossary Off
Versions: 1 2 3 4 5 6 7 8 9 10 11 12 13 14 15 16 17 18 19 20 21 22 23 24 25 26 27 28 29 30 31 32 33 34 35 36 37 38 39 40 41 42 43 44 45 46 47 48 49 50

064
ASUS43 KLMK 020310
RWRKY
KENTUCKY REGIONAL WEATHER ROUNDUP
NATIONAL WEATHER SERVICE LOUISVILLE KY
1100 PM EDT SUN MAY 01 2016

NOTE "FAIR" INDICATES FEW OR NO CLOUDS BELOW 12,000 FEET
WITH NO SIGNIFICANT WEATHER AND/OR OBSTRUCTIONS TO VISIBILITY.

KYZ001>023-026-027-061>063-070>075-020400-
WESTERN AND SOUTH CENTRAL KENTUCKY

CITY           SKY/WX    TMP DP  RH WIND       PRES   REMARKS
PADUCAH        CLEAR     68  61  78 W7        29.93R
HENDERSON      CLEAR     70  63  78 SW9       29.90R
OWENSBORO      CLEAR     68  64  86 SW8       29.91R
HOPKINSVILLE   CLEAR     68  65  90 S7        29.94R
BOWLING GREEN  CLEAR     69  60  73 SW6       29.94R
GLASGOW        CLEAR     65  65  99 SW3       29.94R
$$

KYZ024-025-028>034-038-045-046-053-020400-
NORTH CENTRAL KENTUCKY

CITY           SKY/WX    TMP DP  RH WIND       PRES   REMARKS
LOUISVILLE/SDF CLEAR     68  63  84 SE8       29.88R
LOUISVILLE/LOU CLEAR     67  62  84 S3        29.89R
FORT KNOX      CLEAR     66  63  89 S7        29.89R
$$

KYZ035>037-039>044-047>052-055>060-089>105-020400-
NORTHEAST KENTUCKY

CITY           SKY/WX    TMP DP  RH WIND       PRES   REMARKS
LEXINGTON      CLEAR     62  59  90 SE7       29.92F
COVINGTON      PTCLDY    60  58  92 S7        29.88F
FRANKFORT      PTCLDY    65  60  84 S7        29.90S
$$

KYZ054-064>069-076>088-106>120-020400-
SOUTHEAST KENTUCKY

CITY           SKY/WX    TMP DP  RH WIND       PRES   REMARKS
JACKSON        PTCLDY    62  58  86 S6        29.98S
LONDON         PTCLDY    67  59  75 CALM      29.96S
SOMERSET       PTCLDY    68  61  77 S3        29.96S
MIDDLESBORO    CLOUDY    69  66  90 SW3       29.99S
MONTICELLO     PTCLDY    68  63  84 W13       29.98R
$$





USA.gov is the U.S. government's official web portal to all federal, state and local government web resources and services.